Hourly Data Report for May 05, 2020

TORONTO CITY
ONTARIO
Current Station Operator: ECCC - MSC

43°40'00.000" N
79°24'00.000" W
112.50 m
6158355
71508
XTO

Download Data

Hourly Data (May 2020)
Hourly Data Report for May 5, 2020
TIME
LST
Temp Definition
°C
Dew Point Definition
°C
Rel Hum Definition
%
Precip. Amount Definition
mm

Wind Dir Definition
10's deg

Wind Spd Definition
km/h
Visibility Definition
km
Stn Press Definition
kPa
Hmdx Definition


Wind Chill Definition


Weather Definition


00:00 4.1 -7.9 41 0.0       100.52     LegendNANA
01:00 3.8 -5.6 50 0.0       100.43     LegendNANA
02:00 3.3 -4.4 57 0.0       100.47     LegendNANA
03:00 2.9 -3.7 62 0.0       100.50     LegendNANA
04:00 2.2 -3.5 66 0.0       100.45     LegendNANA
05:00 2.1 -4.0 64 0.0       100.42     LegendNANA
06:00 2.2 -4.3 62 0.0       100.50     LegendNANA
07:00 3.6 -6.8 47 0.0       100.52     LegendNANA
08:00 5.0 -7.2 41 0.0       100.48     LegendNANA
09:00 6.4 -6.4 39 0.0       100.41     LegendNANA
10:00 6.3 -6.9 38 0.0       100.39     LegendNANA
11:00 7.0 -5.4 41 0.2       100.34     LegendNANA
12:00 6.4 -6.8 38 0.3       100.33     LegendNANA
13:00 7.0 -4.9 42 0.0       100.29     LegendNANA
14:00 8.0 -5.4 38 0.3       100.23     LegendNANA
15:00 7.3 -4.6 42 0.0       100.15     LegendNANA
16:00 8.9 -3.9 40 0.3       100.12     LegendNANA
17:00 8.0 -7.1 33 0.2       100.09     LegendNANA
18:00 8.3 -8.2 30 0.0       100.06     LegendNANA
19:00 7.8 -7.0 34 0.0       100.04     LegendNANA
20:00 7.8 -7.2 34 0.0       100.05     LegendNANA
21:00 6.9 -8.7 32 0.0       100.09     LegendNANA
22:00 5.8 -6.8 40 0.0       100.10     LegendNANA
23:00 5.5 -5.5 45 0.0       100.09     LegendNANA

Notes on Data Quality.

Legend

  • E = Estimated
  • M = Missing
  • NA = Not Available*
  • [empty] = Indicates an unobserved value
Date modified: